GONETS D1 2

Satellite information

Favourite Embed

Satellite Type and Status

PAYLOADIN ORBIT

Key statistics

Satellite GONETS D1 2 at a glance.

Uptime

10843

Days in orbit

Revolutions

≈ 12.6

Per day

Orbit

LEO

Low Earth Orbit

Inclination

82.6

Latest

Satellite identification and parameters

Extended collection of information and parameters for GONETS D1 2.

Object identification

Identified? True

Debris? False

Object name: GONETS D1 2

International designator: 1996-009B

Object number (NORAD): 23788

Object ID (CCSDS): 23788

Country: COMMONWEALTH OF INDEPENDENT STATES (CIS)

Current information (Y/N): Y

RCS size: MEDIUM

Orbital parameters

Period: 113.995 minutes

Inclination: 82.5662 deg

SMA: 7787.866 km

Apoapsis: 1414.674 km

Periapsis: 1404.787 km

RAAN: 93.758 deg

Eccentricy: 0.00063476

Argument of periapsis: 233.3319 deg

Mean anomaly: 126.719 deg

Mean motion: 12.63208633 rev/day

Mean motion (dot): 0.00000029 rev/day2

B* drag term: 0.00010431365 1/REarth

Two-line elements (TLE)

Creation date: Oct. 27, 2025, 2:46 a.m.

Reference frame: TEME

Reference center: EARTH

Epoch: Oct. 26, 2025, 10:15 p.m. UTC

TLE line 0: 0 GONETS D1 2

TLE line 1: 1 23788U 96009B 25299.92763512 .00000029 00000-0 10431-3 0 9997

TLE line 2: 2 23788 82.5662 93.7580 0006348 233.3319 126.7190 12.63208633368643

Live tracking on map

Real-time ground track for satellite GONETS D1 2.

In-orbit conjunctions

There are no conjunctions computed for GONETS D1 2, at the moment. Check back to stay up to date, as we update our databases every day.

Go to all conjunctions

Associated space launch

Gonets- satellite were the civilian derivate of the military Strela-3 satellite system. The Gonets system was offered to support international health organizations to meet their global communications needs for the transfer of medical data and records to remote sites. Strela-3 was the second generation of Russian strategic store-dump military communications satellite. Development of this generation to replace the first generation Strela-1M and Strela-2M satellites began in 1973.

GONETS D1 2 was lifted into orbit during the mission ‘Tsiklon-3 | Gonets-D 319 to 321 & Strela-3 113 to 115’, on board a Tsiklon-3 space rocket.

The launch took place on Feb. 19, 1996, 12:58 a.m. from 32/1.

For more information about the launch, click the button.

Launch to space Tsiklon-3 | Gonets-D 319 to 321 & Strela-3 113 to 115
Tsiklon-3 | Gonets-D 319 to 321 & Strela-3 113 to 115

Agency: N/A

Status: Launch Successful

Launch date: Feb. 19, 1996, 12:58 a.m. UTC

Rocket: Tsiklon-3

Launch pad: 32/1

Location: Plesetsk Cosmodrome, Russian Federation

...

Latest news about this satellite

There are no fresh news available about this satellite. Check back as we update our databases every day.


Newsletter sign-up

Weekly statistics, charts and insights to help you stay on top of the space industry.